Time,TemperatureF,DewpointF,PressureIn,WindDirection,WindDirectionDegrees,WindSpeedMPH,WindSpeedGustMPH,Humidity,HourlyPrecipIn,Conditions,Clouds,dailyrainin,SoftwareType,DateUTC
2013-05-31 00:02:00,75.0,62.0,30.03,SW,222,1.0,7.0,63,0.00,,,0.00,,2013-05-31 04:02:00,
2013-05-31 00:12:00,75.0,62.0,30.03,SW,222,1.0,7.0,63,0.00,,,0.00,,2013-05-31 04:12:00,
2013-05-31 00:22:00,74.0,61.0,30.04,South,191,0.0,0.0,65,0.00,,,0.00,,2013-05-31 04:22:00,
2013-05-31 00:33:00,74.0,62.0,30.05,West,270,0.0,0.0,66,0.00,,,0.00,,2013-05-31 04:33:00,
2013-05-31 00:42:00,74.0,62.0,30.05,West,270,0.0,0.0,66,0.00,,,0.00,,2013-05-31 04:42:00,
2013-05-31 00:53:00,74.0,62.0,30.05,SW,231,3.0,7.0,66,0.00,,,0.00,,2013-05-31 04:53:00,
2013-05-31 01:02:00,74.0,62.0,30.05,SSW,212,5.0,6.0,66,0.00,,,0.00,,2013-05-31 05:02:00,
2013-05-31 01:12:00,74.0,62.0,30.05,WSW,250,0.0,6.0,66,0.00,,,0.00,,2013-05-31 05:12:00,
2013-05-31 01:22:00,74.0,62.0,30.05,WSW,250,0.0,6.0,66,0.00,,,0.00,,2013-05-31 05:22:00,
2013-05-31 01:32:00,73.0,61.0,30.04,WSW,257,0.0,0.0,66,0.00,,,0.00,,2013-05-31 05:32:00,
2013-05-31 01:42:00,73.0,61.0,30.04,WSW,257,0.0,0.0,66,0.00,,,0.00,,2013-05-31 05:42:00,
2013-05-31 01:52:00,73.0,61.0,30.04,WSW,246,0.0,0.0,67,0.00,,,0.00,,2013-05-31 05:52:00,
2013-05-31 02:02:00,73.0,61.0,30.04,WSW,239,0.0,0.0,67,0.00,,,0.00,,2013-05-31 06:02:00,
2013-05-31 02:12:00,72.0,61.0,30.05,SW,232,0.0,0.0,69,0.00,,,0.00,,2013-05-31 06:12:00,
2013-05-31 02:22:00,72.0,61.0,30.05,SW,232,0.0,0.0,69,0.00,,,0.00,,2013-05-31 06:22:00,
2013-05-31 02:32:00,72.0,61.0,30.04,SW,235,0.0,5.0,69,0.00,,,0.00,,2013-05-31 06:32:00,
2013-05-31 02:41:00,72.0,62.0,30.04,West,267,0.0,0.0,70,0.00,,,0.00,,2013-05-31 06:41:00,
2013-05-31 02:52:00,72.0,62.0,30.04,West,267,0.0,0.0,70,0.00,,,0.00,,2013-05-31 06:52:00,
2013-05-31 03:02:00,72.0,62.0,30.03,SW,216,0.0,0.0,70,0.00,,,0.00,,2013-05-31 07:02:00,
2013-05-31 03:11:00,72.0,62.0,30.03,WSW,250,1.0,0.0,72,0.00,,,0.00,,2013-05-31 07:11:00,
2013-05-31 03:21:00,72.0,62.0,30.03,WSW,250,1.0,0.0,72,0.00,,,0.00,,2013-05-31 07:21:00,
2013-05-31 03:32:00,71.0,62.0,30.03,WSW,248,2.0,3.0,73,0.00,,,0.00,,2013-05-31 07:32:00,
2013-05-31 03:41:00,71.0,62.0,30.03,WSW,248,2.0,3.0,73,0.00,,,0.00,,2013-05-31 07:41:00,
2013-05-31 03:53:00,71.0,63.0,30.02,WSW,256,0.0,0.0,75,0.00,,,0.00,,2013-05-31 07:53:00,
2013-05-31 04:02:00,71.0,63.0,30.01,SW,226,3.0,5.0,75,0.00,,,0.00,,2013-05-31 08:02:00,
2013-05-31 04:11:00,71.0,63.0,30.01,SW,226,3.0,5.0,75,0.00,,,0.00,,2013-05-31 08:11:00,
2013-05-31 04:22:00,71.0,63.0,30.01,SW,221,5.0,7.0,76,0.00,,,0.00,,2013-05-31 08:22:00,
2013-05-31 04:32:00,71.0,63.0,30.01,SSW,192,2.0,2.0,76,0.00,,,0.00,,2013-05-31 08:32:00,
2013-05-31 04:42:00,71.0,63.0,30.01,SSW,192,2.0,2.0,76,0.00,,,0.00,,2013-05-31 08:42:00,
2013-05-31 04:52:00,70.0,63.0,30.00,SSW,205,0.0,0.0,78,0.00,,,0.00,,2013-05-31 08:52:00,
2013-05-31 05:01:00,70.0,63.0,30.01,SSW,212,0.0,0.0,78,0.00,,,0.00,,2013-05-31 09:01:00,
2013-05-31 05:11:00,70.0,63.0,30.01,SSW,211,3.0,5.0,78,0.00,,,0.00,,2013-05-31 09:11:00,
2013-05-31 05:21:00,70.0,63.0,30.01,SSW,211,3.0,5.0,78,0.00,,,0.00,,2013-05-31 09:21:00,
2013-05-31 05:32:00,70.0,63.0,30.01,SSW,211,1.0,7.0,79,0.00,,,0.00,,2013-05-31 09:32:00,
2013-05-31 05:43:00,70.0,63.0,30.01,SSW,211,1.0,7.0,79,0.00,,,0.00,,2013-05-31 09:43:00,
2013-05-31 05:53:00,70.0,64.0,30.01,SW,216,0.0,3.0,81,0.00,,,0.00,,2013-05-31 09:53:00,
2013-05-31 06:02:00,70.0,64.0,30.01,SSW,212,1.0,3.0,81,0.00,,,0.00,,2013-05-31 10:02:00,
2013-05-31 06:12:00,69.0,63.0,30.01,SW,224,5.0,7.0,81,0.00,,,0.00,,2013-05-31 10:12:00,
2013-05-31 06:22:00,69.0,63.0,30.01,SW,224,5.0,7.0,81,0.00,,,0.00,,2013-05-31 10:22:00,
2013-05-31 06:33:00,69.0,63.0,30.01,SSW,212,5.0,5.0,81,0.00,,,0.00,,2013-05-31 10:33:00,
2013-05-31 06:42:00,69.0,63.0,30.01,SSW,212,5.0,5.0,81,0.00,,,0.00,,2013-05-31 10:42:00,
2013-05-31 06:52:00,69.0,63.0,30.01,SW,224,5.0,6.0,81,0.00,,,0.00,,2013-05-31 10:52:00,
2013-05-31 07:02:00,69.0,63.0,30.01,SSW,210,6.0,8.0,81,0.00,,,0.00,,2013-05-31 11:02:00,
2013-05-31 07:12:00,69.0,63.0,30.01,SSW,210,6.0,8.0,81,0.00,,,0.00,,2013-05-31 11:12:00,
2013-05-31 07:22:00,70.0,64.0,30.01,SW,233,6.0,7.0,81,0.00,,,0.00,,2013-05-31 11:22:00,
2013-05-31 07:32:00,70.0,64.0,30.01,SW,227,5.0,6.0,81,0.00,,,0.00,,2013-05-31 11:32:00,
2013-05-31 07:42:00,70.0,64.0,30.01,SW,227,5.0,6.0,81,0.00,,,0.00,,2013-05-31 11:42:00,
2013-05-31 07:52:00,70.0,64.0,30.01,SW,225,7.0,9.0,80,0.00,,,0.00,,2013-05-31 11:52:00,
2013-05-31 08:01:00,71.0,64.0,30.02,SW,227,6.0,8.0,79,0.00,,,0.00,,2013-05-31 12:01:00,
2013-05-31 08:11:00,71.0,64.0,30.02,SW,227,6.0,8.0,79,0.00,,,0.00,,2013-05-31 12:11:00,
2013-05-31 08:22:00,71.0,64.0,30.02,WSW,246,5.0,6.0,78,0.00,,,0.00,,2013-05-31 12:22:00,
2013-05-31 08:31:00,72.0,64.0,30.02,SW,218,7.0,12.0,76,0.00,,,0.00,,2013-05-31 12:31:00,
2013-05-31 08:42:00,72.0,64.0,30.02,SW,218,7.0,12.0,76,0.00,,,0.00,,2013-05-31 12:42:00,
2013-05-31 08:52:00,73.0,64.0,30.02,SW,226,3.0,5.0,73,0.00,,,0.00,,2013-05-31 12:52:00,
2013-05-31 09:01:00,73.0,63.0,30.02,SW,230,6.0,7.0,72,0.00,,,0.00,,2013-05-31 13:01:00,
2013-05-31 09:11:00,73.0,63.0,30.02,SW,230,6.0,7.0,72,0.00,,,0.00,,2013-05-31 13:11:00,
2013-05-31 09:21:00,73.0,63.0,30.02,SSW,210,6.0,8.0,70,0.00,,,0.00,,2013-05-31 13:21:00,
2013-05-31 09:32:00,74.0,64.0,30.02,SW,225,5.0,8.0,70,0.00,,,0.00,,2013-05-31 13:32:00,
2013-05-31 09:42:00,74.0,64.0,30.02,SW,225,5.0,8.0,70,0.00,,,0.00,,2013-05-31 13:42:00,
2013-05-31 09:52:00,74.0,64.0,30.02,WSW,243,7.0,7.0,72,0.00,,,0.00,,2013-05-31 13:52:00,
2013-05-31 10:02:00,75.0,66.0,30.02,SW,229,2.0,5.0,73,0.00,,,0.00,,2013-05-31 14:02:00,
2013-05-31 10:11:00,75.0,66.0,30.02,SW,229,2.0,5.0,73,0.00,,,0.00,,2013-05-31 14:11:00,
2013-05-31 10:21:00,76.0,64.0,30.01,SW,232,6.0,7.0,67,0.00,,,0.00,,2013-05-31 14:21:00,
2013-05-31 10:32:00,76.0,63.0,30.01,WSW,239,6.0,9.0,65,0.00,,,0.00,,2013-05-31 14:32:00,
2013-05-31 10:42:00,76.0,63.0,30.01,WSW,239,6.0,9.0,65,0.00,,,0.00,,2013-05-31 14:42:00,
2013-05-31 10:52:00,77.0,62.0,30.01,SW,231,5.0,12.0,59,0.00,,,0.00,,2013-05-31 14:52:00,
2013-05-31 11:01:00,77.0,62.0,30.01,SW,233,6.0,9.0,59,0.00,,,0.00,,2013-05-31 15:01:00,
2013-05-31 11:11:00,79.0,62.0,30.01,SW,232,6.0,8.0,57,0.00,,,0.00,,2013-05-31 15:11:00,
2013-05-31 11:21:00,79.0,62.0,30.01,SW,232,6.0,8.0,57,0.00,,,0.00,,2013-05-31 15:21:00,
2013-05-31 11:33:00,80.0,62.0,30.01,SW,234,7.0,7.0,55,0.00,,,0.00,,2013-05-31 15:33:00,
2013-05-31 11:43:00,80.0,62.0,30.01,SW,234,7.0,7.0,55,0.00,,,0.00,,2013-05-31 15:43:00,
2013-05-31 11:53:00,81.0,63.0,30.01,SW,229,6.0,7.0,54,0.00,,,0.00,,2013-05-31 15:53:00,
2013-05-31 12:03:00,80.0,62.0,30.01,WSW,246,2.0,8.0,54,0.00,,,0.00,,2013-05-31 16:03:00,
2013-05-31 12:12:00,81.0,63.0,30.01,WSW,238,3.0,7.0,54,0.00,,,0.00,,2013-05-31 16:12:00,
2013-05-31 12:22:00,81.0,63.0,30.01,WSW,238,3.0,7.0,54,0.00,,,0.00,,2013-05-31 16:22:00,
2013-05-31 12:33:00,81.0,63.0,30.01,SW,219,3.0,6.0,54,0.00,,,0.00,,2013-05-31 16:33:00,
2013-05-31 12:42:00,81.0,63.0,30.01,SW,219,3.0,6.0,54,0.00,,,0.00,,2013-05-31 16:42:00,
2013-05-31 12:52:00,81.0,63.0,30.00,West,265,7.0,8.0,55,0.00,,,0.00,,2013-05-31 16:52:00,
2013-05-31 13:02:00,81.0,63.0,30.00,WSW,243,2.0,7.0,54,0.00,,,0.00,,2013-05-31 17:02:00,
2013-05-31 13:12:00,81.0,63.0,30.00,WSW,243,2.0,7.0,54,0.00,,,0.00,,2013-05-31 17:12:00,
2013-05-31 13:22:00,80.0,61.0,29.99,SW,234,7.0,10.0,53,0.00,,,0.00,,2013-05-31 17:22:00,
2013-05-31 13:32:00,81.0,63.0,29.99,SW,235,2.0,10.0,54,0.00,,,0.00,,2013-05-31 17:32:00,
2013-05-31 13:42:00,81.0,63.0,29.99,SW,235,2.0,10.0,54,0.00,,,0.00,,2013-05-31 17:42:00,
2013-05-31 13:52:00,83.0,64.0,29.99,WSW,251,6.0,9.0,52,0.00,,,0.00,,2013-05-31 17:52:00,
2013-05-31 14:02:00,81.0,62.0,29.98,WSW,246,6.0,8.0,52,0.00,,,0.00,,2013-05-31 18:02:00,
2013-05-31 14:12:00,82.0,63.0,29.97,SW,228,6.0,8.0,53,0.00,,,0.00,,2013-05-31 18:12:00,
2013-05-31 14:22:00,82.0,63.0,29.97,SW,228,6.0,8.0,53,0.00,,,0.00,,2013-05-31 18:22:00,
2013-05-31 14:32:00,81.0,62.0,29.97,SSW,212,6.0,6.0,53,0.00,,,0.00,,2013-05-31 18:32:00,
2013-05-31 14:42:00,81.0,62.0,29.97,SSW,212,6.0,6.0,53,0.00,,,0.00,,2013-05-31 18:42:00,
2013-05-31 14:52:00,78.0,66.0,30.00,West,259,6.0,9.0,67,0.14,,,0.14,,2013-05-31 18:52:00,
2013-05-31 15:02:00,74.0,66.0,29.99,SW,225,6.0,6.0,76,0.24,,,0.24,,2013-05-31 19:02:00,
2013-05-31 15:11:00,74.0,66.0,29.99,SW,225,6.0,6.0,76,0.24,,,0.24,,2013-05-31 19:11:00,
2013-05-31 15:22:00,72.0,67.0,29.98,SW,234,3.0,5.0,84,0.31,,,0.31,,2013-05-31 19:22:00,
2013-05-31 15:32:00,71.0,66.0,29.98,South,181,2.0,3.0,85,0.32,,,0.32,,2013-05-31 19:32:00,
2013-05-31 15:42:00,72.0,69.0,29.98,SW,218,3.0,7.0,89,0.18,,,0.32,,2013-05-31 19:42:00,
2013-05-31 15:52:00,72.0,69.0,29.98,SW,218,3.0,7.0,89,0.18,,,0.32,,2013-05-31 19:52:00,
2013-05-31 16:02:00,72.0,70.0,29.97,SSW,211,3.0,6.0,92,0.08,,,0.32,,2013-05-31 20:02:00,
2013-05-31 16:11:00,72.0,70.0,29.97,SSW,211,3.0,6.0,92,0.08,,,0.32,,2013-05-31 20:11:00,
2013-05-31 16:22:00,73.0,70.0,29.96,SSW,209,2.0,5.0,90,0.01,,,0.32,,2013-05-31 20:22:00,
2013-05-31 16:32:00,72.0,68.0,29.97,WSW,240,3.0,5.0,88,0.06,,,0.38,,2013-05-31 20:32:00,
2013-05-31 16:42:00,72.0,68.0,29.97,WSW,240,3.0,5.0,88,0.06,,,0.38,,2013-05-31 20:42:00,
2013-05-31 16:52:00,72.0,70.0,29.96,SW,216,2.0,7.0,93,0.19,,,0.51,,2013-05-31 20:52:00,
2013-05-31 17:01:00,71.0,69.0,29.96,WSW,245,3.0,6.0,95,0.22,,,0.54,,2013-05-31 21:01:00,
2013-05-31 17:11:00,71.0,69.0,29.96,WSW,245,3.0,6.0,95,0.22,,,0.54,,2013-05-31 21:11:00,
2013-05-31 17:22:00,71.0,69.0,29.95,SW,217,5.0,7.0,95,0.26,,,0.58,,2013-05-31 21:22:00,
2013-05-31 17:32:00,70.0,68.0,29.95,WSW,257,2.0,8.0,95,0.20,,,0.58,,2013-05-31 21:32:00,
2013-05-31 17:42:00,70.0,68.0,29.94,SW,227,9.0,17.0,95,0.11,,,0.62,,2013-05-31 21:42:00,
2013-05-31 17:54:00,70.0,68.0,29.94,SW,227,9.0,17.0,95,0.11,,,0.62,,2013-05-31 21:54:00,
2013-05-31 18:02:00,69.0,68.0,29.95,West,275,6.0,9.0,95,0.11,,,0.65,,2013-05-31 22:02:00,
2013-05-31 18:12:00,70.0,68.0,29.96,WSW,242,5.0,7.0,95,0.07,,,0.65,,2013-05-31 22:12:00,
2013-05-31 18:22:00,70.0,68.0,29.96,WSW,242,5.0,7.0,95,0.07,,,0.65,,2013-05-31 22:22:00,
2013-05-31 18:33:00,70.0,68.0,29.96,WSW,251,5.0,7.0,95,0.07,,,0.65,,2013-05-31 22:33:00,
2013-05-31 18:42:00,70.0,68.0,29.95,WSW,246,3.0,6.0,95,0.03,,,0.65,,2013-05-31 22:42:00,
2013-05-31 18:53:00,70.0,68.0,29.95,WSW,246,3.0,6.0,95,0.03,,,0.65,,2013-05-31 22:53:00,
2013-05-31 19:02:00,71.0,69.0,29.95,SW,219,1.0,3.0,95,0.00,,,0.65,,2013-05-31 23:02:00,
2013-05-31 19:12:00,71.0,69.0,29.95,SW,229,6.0,8.0,95,0.00,,,0.65,,2013-05-31 23:12:00,
2013-05-31 19:21:00,71.0,69.0,29.95,SW,229,6.0,8.0,95,0.00,,,0.65,,2013-05-31 23:21:00,
2013-05-31 19:32:00,71.0,69.0,29.95,SW,233,3.0,5.0,95,0.00,,,0.65,,2013-05-31 23:32:00,
2013-05-31 19:42:00,71.0,69.0,29.95,SW,233,3.0,5.0,95,0.00,,,0.65,,2013-05-31 23:42:00,
2013-05-31 19:52:00,71.0,69.0,29.95,SW,233,3.0,5.0,95,0.00,,,0.65,,2013-05-31 23:52:00,
2013-05-31 20:01:00,72.0,70.0,29.94,SSW,211,5.0,9.0,95,0.00,,,0.65,,2013-06-01 00:01:00,
2013-05-31 20:12:00,72.0,70.0,29.93,SSW,210,5.0,6.0,95,0.00,,,0.65,,2013-06-01 00:12:00,
2013-05-31 20:22:00,72.0,70.0,29.93,SSW,210,5.0,6.0,95,0.00,,,0.65,,2013-06-01 00:22:00,
2013-05-31 20:32:00,72.0,70.0,29.93,WSW,239,2.0,6.0,95,0.00,,,0.65,,2013-06-01 00:32:00,
2013-05-31 20:42:00,72.0,70.0,29.93,SW,232,2.0,3.0,95,0.00,,,0.65,,2013-06-01 00:42:00,
2013-05-31 20:52:00,72.0,70.0,29.93,SW,232,2.0,3.0,95,0.00,,,0.65,,2013-06-01 00:52:00,
2013-05-31 21:01:00,72.0,70.0,29.92,SSW,200,0.0,2.0,95,0.00,,,0.65,,2013-06-01 01:01:00,
2013-05-31 21:11:00,72.0,70.0,29.92,SSW,201,1.0,3.0,95,0.00,,,0.65,,2013-06-01 01:11:00,
2013-05-31 21:22:00,72.0,70.0,29.92,SSW,201,1.0,3.0,95,0.00,,,0.65,,2013-06-01 01:22:00,
2013-05-31 21:32:00,71.0,69.0,29.92,West,264,0.0,0.0,95,0.00,,,0.65,,2013-06-01 01:32:00,
2013-05-31 21:42:00,71.0,69.0,29.92,SSW,211,2.0,5.0,95,0.00,,,0.65,,2013-06-01 01:42:00,
2013-05-31 21:52:00,71.0,69.0,29.92,SSW,211,2.0,5.0,95,0.00,,,0.65,,2013-06-01 01:52:00,
2013-05-31 22:02:00,71.0,69.0,29.92,SW,217,3.0,5.0,95,0.00,,,0.65,,2013-06-01 02:02:00,
2013-05-31 22:11:00,71.0,69.0,29.92,SW,219,1.0,6.0,95,0.00,,,0.65,,2013-06-01 02:11:00,
2013-05-31 22:21:00,71.0,69.0,29.92,SW,219,1.0,6.0,95,0.00,,,0.65,,2013-06-01 02:21:00,
2013-05-31 22:32:00,71.0,69.0,29.92,SE,145,0.0,0.0,95,0.00,,,0.65,,2013-06-01 02:32:00,
2013-05-31 22:42:00,71.0,69.0,29.92,South,187,1.0,3.0,95,0.00,,,0.65,,2013-06-01 02:42:00,
2013-05-31 22:52:00,71.0,69.0,29.92,South,187,1.0,3.0,95,0.00,,,0.65,,2013-06-01 02:52:00,
2013-05-31 23:02:00,71.0,69.0,29.93,SSW,195,1.0,5.0,95,0.00,,,0.65,,2013-06-01 03:02:00,
2013-05-31 23:11:00,71.0,69.0,29.93,SW,224,2.0,6.0,95,0.00,,,0.65,,2013-06-01 03:11:00,
2013-05-31 23:21:00,71.0,69.0,29.93,SW,224,2.0,6.0,95,0.00,,,0.65,,2013-06-01 03:21:00,
2013-05-31 23:33:00,71.0,69.0,29.93,West,280,2.0,3.0,95,0.00,,,0.65,,2013-06-01 03:33:00,
2013-05-31 23:43:00,71.0,69.0,29.94,SSW,213,1.0,5.0,95,0.00,,,0.65,,2013-06-01 03:43:00,
2013-05-31 23:53:00,71.0,69.0,29.94,SSW,213,1.0,5.0,95,0.00,,,0.65,,2013-06-01 03:53:00,